EW9485 Weather Reports


Display with metric or nautical units.
time (UTC)temp
F
wind
direction
speed
MPH
gust
MPH
rain 1hr
in
rain 24hr
in
rain mn
in
humidity
%
barometer
mb
20260906084556 78 292 1.0 3.0 0.00 0.02 0.00 88 1011.5
20260906084042 78 291 0.0 2.0 0.00 0.02 0.00 88 1011.4
20260906083545 78 291 1.0 2.0 0.00 0.02 0.00 88 1011.5
20260906083054 78 291 1.0 2.0 0.00 0.02 0.00 88 1011.4
20260906082543 78 291 0.0 1.0 0.00 0.02 0.00 87 1011.4
20260906082046 78 0 0.0 1.0 0.00 0.02 0.00 87 1011.4
20260906081602 78 291 0.0 2.0 0.00 0.02 0.00 87 1011.3
20260906081042 78 0 0.0 2.0 0.00 0.02 0.00 87 1011.3
20260906080545 78 291 1.0 2.0 0.00 0.02 0.00 87 1011.4
20260906080058 79 291 1.0 2.0 0.00 0.02 0.00 86 1011.4
20260906075546 79 0 1.0 2.0 0.00 0.02 0.00 86 1011.5
20260906075043 79 0 0.0 1.0 0.00 0.02 0.00 85 1011.4
20260906074556 80 0 0.0 2.0 0.00 0.02 0.00 85 1011.4
20260906074043 80 291 0.0 4.0 0.00 0.02 0.00 84 1011.4
20260906073543 80 0 1.0 4.0 0.00 0.02 0.00 84 1011.4
20260906073058 81 290 2.0 3.0 0.00 0.02 0.00 83 1011.4
20260906072543 81 289 0.0 3.0 0.00 0.02 0.00 83 1011.4
20260906072043 82 289 1.0 5.0 0.00 0.02 0.00 82 1011.4
20260906071552 82 0 1.0 5.0 0.00 0.02 0.00 83 1011.4
20260906071048 81 296 1.0 3.0 0.00 0.02 0.00 83 1011.5
20260906070543 81 296 0.0 3.0 0.00 0.02 0.00 83 1011.4
20260906070057 81 296 1.0 3.0 0.00 0.02 0.00 83 1011.4
20260906065543 81 296 0.0 4.0 0.00 0.02 0.00 83 1011.5
20260906065046 81 0 0.0 4.0 0.00 0.02 0.00 82 1011.5
20260906064554 81 275 2.0 4.0 0.00 0.02 0.00 83 1011.6
20260906064044 81 280 1.0 4.0 0.00 0.02 0.00 83 1011.7
20260906063545 81 260 0.0 4.0 0.00 0.02 0.00 83 1011.6
20260906063057 81 0 1.0 4.0 0.00 0.02 0.00 82 1011.5
20260906062542 81 259 1.0 4.0 0.00 0.02 0.00 82 1011.5
20260906062051 81 228 1.0 4.0 0.00 0.02 0.00 82 1011.4
20260906061556 81 227 1.0 8.0 0.00 0.02 0.00 82 1011.5
20260906061045 82 227 2.0 8.0 0.00 0.02 0.00 82 1011.4
20260906060542 81 238 2.0 8.0 0.00 0.02 0.00 82 1011.5
20260906060054 81 215 2.0 6.0 0.00 0.02 0.00 83 1011.5
20260906055544 81 227 3.0 6.0 0.00 0.02 0.00 83 1011.7
20260906055043 81 258 1.0 6.0 0.00 0.02 0.00 83 1011.9
20260906054551 81 238 1.0 4.0 0.00 0.02 0.00 83 1011.9
20260906054049 81 236 1.0 4.0 0.00 0.02 0.00 83 1012.0
20260906053618 81 232 1.0 4.0 0.00 0.02 0.00 83 1011.9
20260906053100 82 238 1.0 6.0 0.00 0.02 0.00 83 1011.9
20260906052545 81 235 1.0 7.0 0.00 0.02 0.00 83 1012.0
20260906052046 81 235 2.0 7.0 0.00 0.02 0.00 83 1012.0
20260906051555 81 221 2.0 5.0 0.00 0.02 0.00 83 1012.2
20260906051047 81 207 1.0 7.0 0.00 0.02 0.00 83 1012.4
20260906050545 82 236 2.0 7.0 0.00 0.02 0.00 83 1012.4
20260906050128 82 240 2.0 5.0 0.00 0.02 0.00 83 1012.5
20260906045543 82 235 2.0 5.0 0.00 0.02 0.02 82 1012.5
20260906045043 82 233 1.0 4.0 0.00 0.02 0.02 82 1012.7
20260906044559 82 0 1.0 3.0 0.00 0.02 0.02 83 1012.8
20260906044049 82 229 1.0 4.0 0.00 0.02 0.02 83 1012.8
20260906043543 82 229 2.0 4.0 0.00 0.02 0.02 83 1012.8
20260906043057 82 226 1.0 3.0 0.00 0.02 0.02 83 1012.7
20260906042542 82 225 1.0 3.0 0.00 0.02 0.02 82 1012.6
20260906042042 82 225 1.0 4.0 0.00 0.02 0.02 82 1012.8
20260906041554 82 0 1.0 4.0 0.00 0.02 0.02 82 1012.8
20260906041043 82 225 2.0 4.0 0.00 0.02 0.02 82 1012.8
20260906040544 82 225 1.0 4.0 0.00 0.02 0.02 83 1012.8
20260906040137 82 229 1.0 3.0 0.00 0.02 0.02 83 1012.9
20260906035544 82 0 0.0 4.0 0.00 0.02 0.02 82 1012.8
20260906035044 82 229 1.0 4.0 0.00 0.02 0.02 82 1012.8
20260906034605 82 238 1.0 4.0 0.00 0.02 0.02 82 1012.8
20260906034045 82 237 0.0 4.0 0.00 0.02 0.02 82 1012.9
20260906033545 82 237 2.0 4.0 0.00 0.02 0.02 82 1013.0
20260906033104 82 238 1.0 4.0 0.00 0.02 0.02 82 1013.1
20260906032545 82 238 1.0 5.0 0.00 0.02 0.02 82 1013.1
20260906032042 82 237 1.0 5.0 0.00 0.02 0.02 82 1013.2
20260906031607 82 237 2.0 5.0 0.00 0.02 0.02 82 1013.0
20260906031046 82 232 2.0 4.0 0.00 0.02 0.02 83 1013.1
20260906030545 82 244 1.0 4.0 0.00 0.02 0.02 82 1013.1
20260906030107 82 249 1.0 4.0 0.00 0.02 0.02 82 1013.1
20260906025545 82 250 1.0 5.0 0.00 0.02 0.02 82 1013.1
20260906025046 83 250 2.0 8.0 0.00 0.02 0.02 81 1013.2
20260906024604 83 228 1.0 8.0 0.00 0.02 0.02 81 1013.2
20260906024045 83 238 1.0 5.0 0.00 0.02 0.02 81 1013.1
20260906023543 83 234 1.0 6.0 0.00 0.02 0.02 81 1013.1
20260906023058 83 235 2.0 6.0 0.00 0.02 0.02 81 1013.0
20260906022542 82 242 2.0 4.0 0.00 0.02 0.02 81 1012.9
20260906022046 82 0 1.0 7.0 0.00 0.02 0.02 81 1012.9
20260906021605 82 244 1.0 7.0 0.00 0.02 0.02 81 1012.9
20260906021045 83 231 1.0 4.0 0.00 0.02 0.02 81 1012.7
20260906020544 83 243 1.0 5.0 0.00 0.02 0.02 81 1012.8
20260906020059 82 242 1.0 6.0 0.00 0.02 0.02 81 1012.5
20260906015543 82 264 1.0 6.0 0.00 0.02 0.02 81 1012.4
20260906015042 82 235 2.0 7.0 0.00 0.02 0.02 81 1012.2
20260906014558 82 227 1.0 7.0 0.00 0.02 0.02 81 1012.1
20260906014043 82 219 3.0 7.0 0.00 0.02 0.02 81 1012.0
20260906013542 82 233 2.0 5.0 0.00 0.02 0.02 81 1011.9
20260906013059 82 233 2.0 5.0 0.00 0.02 0.02 81 1011.9
20260906012548 82 239 1.0 5.0 0.00 0.02 0.02 82 1011.9
20260906012045 82 240 1.0 4.0 0.00 0.02 0.02 81 1011.7
20260906011557 83 240 1.0 5.0 0.00 0.02 0.02 80 1011.6
20260906011046 83 0 2.0 7.0 0.00 0.02 0.02 80 1011.6
20260906010543 83 236 3.0 7.0 0.00 0.02 0.02 80 1011.7
20260906010106 83 213 2.0 5.0 0.00 0.02 0.02 80 1011.7
20260906005543 83 236 2.0 5.0 0.00 0.02 0.02 80 1011.7
20260906005043 83 244 1.0 4.0 0.00 0.02 0.02 80 1011.7
20260906004605 83 234 1.0 6.0 0.00 0.02 0.02 80 1011.7
20260906004046 83 234 1.0 6.0 0.00 0.02 0.02 80 1011.9
20260906003543 83 234 2.0 6.0 0.00 0.02 0.02 80 1011.8
20260906003101 83 243 1.0 5.0 0.00 0.02 0.02 79 1011.8
20260906002543 83 239 2.0 5.0 0.00 0.02 0.02 79 1011.7
20260906002047 83 220 2.0 7.0 0.00 0.02 0.02 79 1011.7
20260906001606 84 236 2.0 7.0 0.00 0.02 0.02 80 1011.8
20260906001042 84 216 2.0 7.0 0.00 0.02 0.02 79 1011.8
20260906000543 84 243 2.0 7.0 0.00 0.02 0.02 79 1011.9
20260906000057 84 219 3.0 8.0 0.00 0.02 0.02 78 1012.0
20260905235543 84 247 4.0 8.0 0.00 0.02 0.02 78 1012.0
20260905235043 84 241 4.0 8.0 0.00 0.02 0.02 78 1012.0
20260905234602 85 207 3.0 9.0 0.00 0.02 0.02 78 1012.1
20260905234044 85 243 5.0 9.0 0.00 0.02 0.02 77 1012.0
20260905233547 85 237 3.0 9.0 0.00 0.02 0.02 77 1011.9
20260905233108 85 218 4.0 9.0 0.00 0.02 0.02 76 1011.8
20260905232547 85 232 3.0 9.0 0.00 0.02 0.02 76 1011.8
20260905232047 86 248 3.0 9.0 0.00 0.02 0.02 76 1011.9
20260905231600 86 246 3.0 10.0 0.00 0.02 0.02 76 1011.9
20260905231050 87 214 5.0 10.0 0.00 0.02 0.02 75 1011.8
20260905230544 87 263 5.0 8.0 0.00 0.02 0.02 75 1012.0
20260905230059 87 240 4.0 7.0 0.00 0.02 0.02 74 1012.0
20260905225547 87 229 3.0 7.0 0.00 0.02 0.02 75 1012.1
20260905225047 87 227 3.0 9.0 0.00 0.02 0.02 75 1012.0
20260905224601 87 186 4.0 11.0 0.00 0.02 0.02 74 1011.9
20260905224047 88 209 5.0 11.0 0.00 0.02 0.02 73 1012.0
20260905223547 88 215 6.0 11.0 0.00 0.02 0.02 76 1011.9
20260905223055 88 227 7.0 11.0 0.00 0.02 0.02 71 1011.8
20260905222547 89 232 5.0 9.0 0.00 0.02 0.02 71 1011.9
20260905222047 89 236 5.0 9.0 0.00 0.02 0.02 71 1011.9
20260905221603 90 207 2.0 8.0 0.00 0.02 0.02 72 1011.9
20260905221047 90 224 4.0 7.0 0.00 0.02 0.02 71 1012.1
20260905220549 90 279 3.0 9.0 0.00 0.02 0.02 71 1011.9
20260905215547 89 270 5.0 10.0 0.00 0.02 0.02 70 1012.2
20260905215049 90 264 4.0 12.0 0.00 0.02 0.02 69 1012.1
20260905214554 90 308 5.0 12.0 0.00 0.02 0.02 72 1012.2
20260905214048 90 255 4.0 10.0 0.00 0.02 0.02 71 1012.3
20260905213547 89 253 5.0 10.0 0.00 0.02 0.02 70 1012.3
20260905213109 89 236 5.0 12.0 0.00 0.02 0.02 71 1012.3
20260905212548 89 281 5.0 12.0 0.00 0.02 0.02 74 1012.3
20260905212047 89 232 5.0 9.0 0.00 0.02 0.02 72 1012.3
20260905211555 89 271 5.0 10.0 0.00 0.02 0.02 74 1012.3
20260905211048 88 312 5.0 10.0 0.00 0.02 0.02 73 1012.4
20260905210548 88 277 4.0 10.0 0.00 0.02 0.02 70 1012.5
20260905210108 89 281 4.0 10.0 0.00 0.02 0.02 70 1012.5
20260905205549 90 315 5.0 10.0 0.00 0.02 0.02 66 1012.5
20260905205048 91 243 3.0 11.0 0.00 0.02 0.02 72 1012.5
20260905204551 90 240 5.0 11.0 0.00 0.02 0.02 69 1012.6
20260905204051 90 227 4.0 10.0 0.00 0.02 0.02 70 1012.5
20260905203548 90 292 5.0 11.0 0.00 0.02 0.02 69 1012.5
20260905203059 90 292 6.0 11.0 0.00 0.02 0.02 68 1012.4
20260905202548 90 305 4.0 12.0 0.00 0.02 0.02 69 1012.2
20260905202044 90 314 6.0 12.0 0.00 0.02 0.02 72 1012.4
20260905201605 91 288 4.0 12.0 0.00 0.02 0.02 68 1012.4
20260905201045 90 282 5.0 12.0 0.00 0.02 0.02 68 1012.3
20260905200545 90 263 6.0 12.0 0.00 0.02 0.02 67 1012.4
20260905200123 91 238 7.0 12.0 0.00 0.02 0.02 68 1012.4
20260905195546 90 236 5.0 11.0 0.00 0.04 0.02 68 1012.6
20260905195044 91 273 4.0 12.0 0.00 0.04 0.02 66 1012.7
20260905194553 91 278 6.0 12.0 0.00 0.04 0.02 69 1012.9
20260905194044 91 253 4.0 13.0 0.00 0.04 0.02 72 1013.1
20260905193547 90 286 6.0 13.0 0.00 0.04 0.02 68 1013.3
20260905193100 90 247 6.0 13.0 0.00 0.04 0.02 69 1013.3
20260905192544 90 241 6.0 14.0 0.00 0.04 0.02 69 1013.4
20260905192049 89 290 8.0 14.0 0.00 0.04 0.02 69 1013.4
20260905191556 90 236 5.0 14.0 0.00 0.04 0.02 70 1013.6
20260905191045 89 252 5.0 10.0 0.00 0.04 0.02 76 1013.6
20260905190544 88 290 4.0 12.0 0.00 0.04 0.02 72 1013.5
20260905190054 88 255 5.0 13.0 0.00 0.04 0.02 71 1013.5
20260905185546 89 275 7.0 13.0 0.00 0.12 0.02 69 1013.7
20260905185050 89 225 7.0 13.0 0.00 0.12 0.02 71 1013.8
20260905184611 89 290 7.0 11.0 0.00 0.12 0.02 69 1013.8
20260905184044 90 272 5.0 13.0 0.00 0.12 0.02 69 1013.8
20260905183544 89 219 6.0 13.0 0.00 0.12 0.02 73 1013.7
20260905183057 90 292 7.0 13.0 0.00 0.12 0.02 68 1013.5
20260905182545 90 228 4.0 12.0 0.00 0.12 0.02 70 1013.3
20260905182045 90 234 7.0 12.0 0.00 0.12 0.02 69 1013.4
20260905181555 90 296 6.0 13.0 0.00 0.12 0.02 69 1013.7
20260905181045 91 243 5.0 13.0 0.00 0.12 0.02 71 1013.9
20260905180549 90 247 6.0 13.0 0.00 0.12 0.02 71 1013.9
20260905175544 89 228 5.0 10.0 0.00 0.13 0.02 72 1013.9
20260905175047 89 259 3.0 9.0 0.00 0.13 0.02 74 1014.0
20260905174602 87 234 4.0 8.0 0.00 0.13 0.02 73 1014.0
20260905174047 87 294 4.0 8.0 0.00 0.13 0.02 73 1014.1
20260905173547 88 255 4.0 8.0 0.00 0.13 0.02 72 1014.1
20260905173053 88 225 3.0 8.0 0.00 0.13 0.02 73 1014.1
20260905172544 87 225 3.0 10.0 0.00 0.13 0.02 75 1014.4
20260905172046 87 238 5.0 10.0 0.00 0.13 0.02 74 1014.4
20260905171607 88 229 5.0 10.0 0.00 0.13 0.02 73 1014.3
20260905171048 88 232 5.0 9.0 0.00 0.13 0.02 73 1014.4
20260905170543 88 281 4.0 9.0 0.00 0.13 0.02 73 1014.5
20260905170109 89 273 4.0 7.0 0.00 0.13 0.02 72 1014.6
20260905165545 89 232 2.0 8.0 0.00 0.13 0.02 74 1014.5
20260905165043 88 243 3.0 8.0 0.00 0.13 0.02 76 1014.5
20260905164555 89 302 2.0 7.0 0.00 0.13 0.02 73 1014.5
20260905164046 88 278 3.0 7.0 0.00 0.13 0.02 73 1014.5
20260905163545 89 284 1.0 7.0 0.00 0.13 0.02 75 1014.5
20260905163053 88 252 3.0 7.0 0.00 0.13 0.02 75 1014.5
20260905162546 87 187 1.0 6.0 0.00 0.13 0.02 80 1014.6
20260905162045 85 191 3.0 9.0 0.00 0.13 0.02 78 1014.7
20260905161601 85 256 1.0 9.0 0.00 0.13 0.02 78 1014.7
20260905161046 85 224 4.0 9.0 0.00 0.13 0.02 75 1014.8
20260905160549 86 230 4.0 11.0 0.01 0.13 0.02 75 1014.9
20260905160056 87 285 5.0 11.0 0.01 0.13 0.02 74 1014.9
20260905155546 88 242 5.0 9.0 0.01 0.13 0.02 75 1014.8
20260905155046 87 236 3.0 8.0 0.02 0.13 0.02 77 1014.8
20260905154600 86 242 4.0 8.0 0.02 0.13 0.02 75 1014.7
20260905154043 88 202 3.0 8.0 0.02 0.13 0.02 73 1014.8
20260905153546 89 219 2.0 7.0 0.02 0.13 0.02 74 1014.7
20260905153102 88 215 3.0 7.0 0.02 0.13 0.02 76 1014.8
20260905152543 87 260 2.0 6.0 0.02 0.13 0.02 76 1014.9
20260905152043 87 182 2.0 6.0 0.02 0.13 0.02 79 1014.9
20260905151602 86 188 3.0 5.0 0.02 0.13 0.02 81 1014.8
20260905151043 85 186 2.0 5.0 0.02 0.13 0.02 88 1014.7
20260905150546 84 223 2.0 3.0 0.01 0.12 0.01 84 1014.8
20260905150056 84 0 0.0 2.0 0.01 0.12 0.01 83 1014.7
20260905145546 84 0 1.0 4.0 0.01 0.12 0.01 81 1014.7
20260905145045 85 300 1.0 6.0 0.00 0.11 0.00 81 1014.7
20260905144604 85 46 2.0 6.0 0.00 0.11 0.00 81 1014.7
20260905144046 86 40 2.0 5.0 0.00 0.11 0.00 80 1014.7
20260905143544 86 70 2.0 5.0 0.00 0.11 0.00 81 1014.8
20260905143054 87 46 3.0 5.0 0.00 0.11 0.00 79 1014.7
20260905142546 86 40 1.0 5.0 0.00 0.11 0.00 79 1014.8
20260905142047 85 35 2.0 6.0 0.00 0.11 0.00 81 1014.7
20260905141604 85 20 2.0 6.0 0.00 0.11 0.00 82 1014.6
20260905141047 84 32 3.0 6.0 0.00 0.11 0.00 83 1014.6
20260905140549 83 54 1.0 4.0 0.00 0.11 0.00 89 1014.5
20260905140105 82 61 2.0 4.0 0.00 0.11 0.00 88 1014.5
20260905135549 82 33 1.0 3.0 0.00 0.11 0.00 89 1014.4
20260905135049 82 38 1.0 3.0 0.00 0.11 0.00 90 1014.4
20260905134611 81 38 1.0 3.0 0.00 0.11 0.00 91 1014.3
20260905134050 81 38 1.0 3.0 0.00 0.11 0.00 91 1014.2
20260905133547 81 38 1.0 4.0 0.00 0.11 0.00 91 1014.2
20260905133056 80 38 2.0 5.0 0.00 0.11 0.00 91 1014.3
20260905132549 80 38 2.0 5.0 0.00 0.11 0.00 91 1014.3
20260905132048 80 30 3.0 5.0 0.00 0.11 0.00 91 1014.3
20260905131605 79 76 1.0 3.0 0.00 0.11 0.00 91 1014.3
20260905131047 79 76 1.0 2.0 0.00 0.11 0.00 91 1014.2
20260905130548 79 76 1.0 3.0 0.00 0.11 0.00 91 1014.2
20260905130051 79 76 1.0 3.0 0.00 0.11 0.00 91 1014.1
20260905125552 79 76 1.0 3.0 0.00 0.11 0.00 91 1014.2
20260905125047 79 17 0.0 2.0 0.00 0.11 0.00 91 1014.1
20260905124558 79 0 1.0 3.0 0.00 0.11 0.00 91 1014.1
20260905124049 78 0 1.0 4.0 0.00 0.11 0.00 91 1014.0
20260905123545 78 98 2.0 4.0 0.00 0.11 0.00 91 1014.1
20260905123055 78 101 2.0 4.0 0.00 0.11 0.00 91 1014.1
20260905122548 77 99 1.0 4.0 0.00 0.11 0.00 91 1014.0
20260905122050 77 101 1.0 4.0 0.00 0.11 0.00 91 1014.0
20260905121553 76 0 1.0 4.0 0.00 0.11 0.00 91 1014.0
20260905121047 76 101 1.0 4.0 0.00 0.11 0.00 91 1014.1
20260905120546 76 101 2.0 4.0 0.00 0.11 0.00 91 1014.0
20260905120100 76 96 1.0 3.0 0.00 0.11 0.00 90 1014.0
20260905115546 76 71 1.0 3.0 0.00 0.11 0.00 90 1013.9
20260905115048 76 71 1.0 3.0 0.00 0.11 0.00 90 1013.9
20260905114609 76 70 1.0 3.0 0.00 0.11 0.00 90 1013.9
20260905114047 76 0 1.0 3.0 0.00 0.11 0.00 90 1013.9
20260905113548 76 70 0.0 4.0 0.00 0.11 0.00 90 1013.7
20260905113055 76 70 2.0 4.0 0.00 0.11 0.00 90 1013.8
20260905112547 76 70 1.0 4.0 0.00 0.11 0.00 90 1013.8
20260905112051 76 70 1.0 4.0 0.00 0.11 0.00 90 1013.8
20260905111604 76 70 1.0 3.0 0.00 0.11 0.00 90 1013.8
20260905111048 76 120 1.0 3.0 0.00 0.11 0.00 90 1013.8
20260905110549 76 120 1.0 3.0 0.00 0.11 0.00 90 1013.7
20260905105548 76 120 0.0 2.0 0.00 0.11 0.00 90 1013.7
20260905105047 76 120 1.0 2.0 0.00 0.11 0.00 90 1013.7
20260905104603 76 0 0.0 2.0 0.00 0.11 0.00 90 1013.7
20260905104051 76 0 0.0 2.0 0.00 0.11 0.00 90 1013.6
20260905103547 76 120 0.0 3.0 0.00 0.11 0.00 90 1013.6
20260905103112 76 120 1.0 3.0 0.00 0.11 0.00 90 1013.6
20260905102547 76 120 1.0 3.0 0.00 0.11 0.00 90 1013.5
20260905102044 76 119 1.0 3.0 0.00 0.11 0.00 90 1013.4
20260905101602 76 120 1.0 3.0 0.00 0.11 0.00 90 1013.4
20260905101048 76 120 1.0 3.0 0.00 0.11 0.00 90 1013.3
20260905100549 76 120 1.0 3.0 0.00 0.11 0.00 90 1013.3
20260905100055 76 0 1.0 3.0 0.00 0.11 0.00 90 1013.4
20260905095547 76 120 1.0 2.0 0.00 0.11 0.00 90 1013.3
20260905095044 76 120 0.0 2.0 0.00 0.11 0.00 90 1013.5
20260905094612 76 120 1.0 2.0 0.00 0.11 0.00 90 1013.4
20260905094044 76 120 1.0 2.0 0.00 0.11 0.00 90 1013.4
20260905093548 76 120 1.0 2.0 0.00 0.11 0.00 90 1013.3
20260905093101 76 120 0.0 2.0 0.00 0.11 0.00 90 1013.2
20260905092550 76 120 1.0 2.0 0.00 0.11 0.00 90 1013.3
20260905092047 76 120 1.0 2.0 0.00 0.11 0.00 90 1013.3
20260905091607 76 120 1.0 2.0 0.00 0.11 0.00 90 1013.3
20260905091047 76 120 0.0 2.0 0.00 0.11 0.00 90 1013.3
20260905090547 76 120 0.0 2.0 0.00 0.11 0.00 90 1013.3
20260905090055 76 120 0.0 2.0 0.00 0.11 0.00 90 1013.2
20260905085547 76 0 0.0 3.0 0.00 0.11 0.00 90 1013.2
20260905085047 76 120 1.0 3.0 0.00 0.11 0.00 90 1013.3